STARLINK-32020 (60201 NORAD) Tracking and Keplerian Element Data

This shows tracking and keplerian element data for the satellite.

Feedback or suggestion? Click here.




ElementValue
Catalog60201
NameSTARLINK-32020
Epoch Orbit1566
Epoch Day286.44930265
Epoch Year2024
RAAN190.1866
Inclination53.1575
Eccentricity9.02E-05
Argument of Perigee60.3644
Mean Anonmoly299.7451
Mean Motion15.39667946
Decay Rate0.00110293
L11 60201U 24124U 24286.44930265 .00110293 00000+0 27233-2 0 9991
L22 60201 53.1575 190.1866 0000902 60.3644 299.7451 15.39667946 15663



Live tracking and technical data element details for STARLINK-32020 (NORAD 60201). STARLINK-32020 can be tracked NOW for your location showing map with azimuth and elevation plus other details from your city location.







IsCatalogInMostPopularTable: catalog: 60201, numindb: 11
Update: records affected: 1



GetName: 60201 STARLINK-32020

Hit Count: updated at: Thu, 23 Jan 2025 15:09:21 GMT